Starlink 36884

operational
NORAD ID: 68026 Int'l Des: 2026-040 Owner: SPXS Country: US Constellation: starlink
LEOCIRCULARRETROGRADE

Über Starlink 36884

Beschreibung wird geladen...

Live-Position

3D-Globus wird geladen...

Nächste Überflüge

Höhenverlauf

Altitude vs Time

uPlot chart will show altitude changes over time

Zweizeiliger Elementsatz

1 68026C 26040M 26061.10465278 .00611750 00000+0 66547-3 0 612
2 68026 97.2860 8.4880 0010074 257.5311 208.2185 16.09124721 10
Epoch: 2. März 2026 • Age: 26 hours

Aktueller Status

Höhe 266.7 km
Geschwindigkeit 7.75 km/s
Subsatellitenpunkt -75.83°S, 24.36°W
Startdatum 1. März 2026
Alter 1 days
Typ internet

Technische Details

Klassifizierung Payload
Masse 575.00 kg
Trockenmasse 530.00 kg
Gesamtmasse 575.00 kg
Länge 0.30 m
Durchmesser 4.10 m
Spannweite 29.00 m
Form Box + pan
Hersteller SPXS
Bus-Typ Starlink V2MO
Phasenstatus In Orbit
Besitzer/Staat SPXS/US

Große Konstellationen

Loading constellations...